Погода в Посере

Россия / Пермский край     58°33′32″N   55°31′20″E
темп.,
°C
ветер,
м/с
пор.,
м/с
влажн.,
%
обл.,
%
осадки,
мм/ч
давл.,
гПа
погр.,
м
8 мая, сб
сб823:00+13ююз41266100 0.1 1015498
02:00+10ю3118098 0.0 1015291
05:00+10ю298283 0.0 1016217
08:00+12юз3674100 0.0 1016286
11:00+15зюз2466100 0.6 1017553
14:00+14зсз1272100 1.4 1017298
17:00+16зсз2262100 2.2 1017915
20:00+14вюв11786 0.4 101710
9 мая, вс
вс923:00+10вюв11865 0.5 101710
02:00+9вюв22885 0.0 101722
05:00+8юв22895 0.0 101736
08:00+13ююв24743 0.0 1018187
11:00+18ююв47524 0.0 10171171
14:00+21ю4639100 0.0 10162642
17:00+20ююв364199 0.0 10171711
20:00+17юв275648 0.0 1017160
10 мая, пн
пн1023:00+14юв2562100 0.0 101894
02:00+12юв376741 0.0 1018112
05:00+11ююв2569100 0.0 101983
08:00+15ююв3960100 0.0 1019271
11:00+18ю4748100 0.0 1020548
14:00+18юз3855100 0.0 10201100
17:00+13зсз4792100 1.0 1022462
20:00+10сз3893100 3.1 1024637
11 мая, вт
вт1123:00+8ссз4889100 3.7 1026637
02:00+5ссз310913 0.0 1028504
05:00+4ссз312893 0.0 1029470
08:00+7с39750 0.0 1030504
11:00+11ссз46493 0.0 10301298
14:00+14ссз4539100 0.0 10291712
17:00+15ссз353713 0.0 10291746
20:00+13сз115593 0.0 102911
12 мая, ср
ср1223:00+9з2264100 0.0 102937
02:00+10зюз2671100 0.0 1028161
05:00+10зюз41280100 0.3 1027374
08:00+12з31083100 0.4 1027393
11:00+17сз366965 0.5 1026769
14:00+21ссз475299 0.4 10251853
17:00+19ссв156197 0.4 1025857
20:00+17вюв2375100 0.0 102592